Regional Weather Roundup
Issued by NWS Newport/Morehead, NC

Current Version | Previous Version | Text Only | Print | Product List | Glossary Off
Versions: 1 2 3 4 5 6 7 8 9 10 11 12 13 14 15 16 17 18 19 20 21 22 23 24 25 26 27 28 29 30 31 32 33 34 35 36 37 38 39 40 41 42 43 44 45 46 47 48 49 50
000 ASUS42 KMHX 100625 RWRMHX WEATHER ROUNDUP FOR EASTERN NORTH CAROLINA NATIONAL WEATHER SERVICE NEWPORT/MOREHEAD CITY NC 100 AM EST SUN DEC 10 2017 NOTE: "FAIR" INDICATES FEW OR NO CLOUDS BELOW 12,000 FEET WITH NO SIGNIFICANT WEATHER AND/OR OBSTRUCTIONS TO VISIBILITY NCZ015>017-031-032-045>047-102-103-100700- NORTH COAST CITY SKY/WX TMP DP RH WIND PRES REMARKS EDENTON CLOUDY 38 34 87 W14 29.95R ELIZABETH CITY CLOUDY 35 34 96 W14 29.94R KITTY HAWK CLOUDY 37 36 96 W9G17 29.90S MANTEO CLOUDY 37 34 87 NW12G17 29.93R $$ NCZ045>047-081-094-103-104-100700- CENTRAL COAST CITY SKY/WX TMP DP RH WIND PRES REMARKS FRISCO CLOUDY 41 38 89 NW14G25 29.94R $$ NCZ095-097-098-100-101-100700- SOUTHERN COAST CITY SKY/WX TMP DP RH WIND PRES REMARKS BEAUFORT MOCLDY 39 36 89 W12 29.98R CEDAR ISLAND NOT AVBL JACKSONVILLE MOCLDY 37 36 96 W8 29.99R PINEY ISLAND N/A N/A N/A N/A W12 29.96R WILMINGTON MOCLDY 39 37 92 W7 30.01R $$ NCZ011>013-027>030-043-044-078>080-089-090>093-098-100700- COASTAL PLAIN CITY SKY/WX TMP DP RH WIND PRES REMARKS AHOSKIE CLOUDY 32 32 99 CALM 29.94S CLINTON PTCLDY 34 34 100 CALM 30.00S ELIZABETHTOWN NOT AVBL GOLDSBORO MOCLDY 36 33 90 W9 29.96R GREENVILLE PTCLDY 34 32 93 CALM 29.98S HAVELOCK CLOUDY 38 36 92 W10 29.98R KENANSVILLE MOCLDY 36 34 93 W6 29.99R KINSTON CLOUDY 36 36 99 W7 29.98R NEW BERN MOCLDY 36 35 96 W7 29.98S RICHLANDS CLOUDY 36 35 96 W5 30.00R ROCKY MOUNT MOCLDY 32 32 100 SW6 29.95S FOG WASHINGTON MOCLDY 35 33 90 W3 29.96S WHITEVILLE CLEAR 37 34 87 SW3 30.02R $$ AMZ130-135-150-152-154-156-158-170-250-252-270-ANZ085-086-088-633-658-670-100700- MARINE OBSERVATIONS STATION/POSITION TIME TEMP WIND PRES WAVE SWELL AIR SEA DIR/SP/G HT/PER HT/PER (UTC) (F) (DEG/KT/KT) (MB) (FT/S) (FT/S) CHESAPEAKE LIGHT NOT AVBL 64 E VA BEACH 0550 44 61 290/ 23/ 29 1010.4 8/ 8 DUCK 0600 36 54 280/ 19/ 20 1012.5 2 E DUCK 0600 55 N/A 5/ 8 2/11 OREGON INLET 0600 38 52 280/ 12/ 21 1012.9 13E OREGON INLT 0548 58 N/A 7/ 8 7/ 8 HATTERAS CG 0600 41 54 300/ 21/ 26 1013.2 DIAMOND BUOY 0610 47 77 290/ 25/ 31 1013.2 CAPE LOOKOUT 0600 290/ 16/ 21 1015.0 BEAUFORT LAB 0600 39 52 280/ 4/ 8 1015.0 30 SE NEW RVR IN 0508 47 63 310/ 19/ 27 1015.1 30 SE NEW RVR IN 0600 63 N/A 7/ 6 2/11 27 SE WRIGHTSVLE 0508 47 67 270/ 23/ 43 1014.8 5 SE WRIGHTSVLE 0608 44 58 270/ 16/ 23 1015.3 225 S CAPE HAT 0550 66 76 290/ 25/ 33 1012.2 12/ 8 41 SE CHARLESTON 0610 74 300/ 25/ 33 1017.6 $$

USA.gov is the U.S. government's official web portal to all federal, state and local government web resources and services.